Weather History for KNQA - February, 2013

Change the Weather History Date:

Monday, February 25, 2013

  Actual Average Record
Temperature  
Mean Temperature 50 °F -  
Max Temperature 60 °F 54 °F 71 °F (1998)
Min Temperature 41 °F 38 °F 20 °F (2003)
Degree Days  
Heating Degree Days 14    
Moisture  
Dew Point 36 °F    
Average Humidity 60    
Maximum Humidity 100    
Minimum Humidity 36    
Precipitation  
Precipitation 0.00 in - - ()
Sea Level Pressure  
Sea Level Pressure 29.72 in    
Wind  
Wind Speed 8 mph (East)    
Max Wind Speed 14 mph    
Max Gust Speed 25 mph    
Visibility 9 miles    
Events Rain    
Averages and records for this station are not official NWS values.
T = Trace of Precipitation, MM = Missing Value Source: NWS Daily Summary

Daily Weather History Graph

Daily Weather History Graph

Search for Another Location

Airport or City:

Trip Planner

Search our weather history database for the weather conditions in past years. The results will help you decide how hot, cold, wet, or windy it might be!

Date:

Astronomy

Feb. 25, 2013 Rise Set
Actual Time 6:33 AM CST 5:51 PM CST
Civil Twilight 6:08 AM CST 6:17 PM CST
Nautical Twilight 5:38 AM CST 6:46 PM CST
Astronomical Twilight 5:09 AM CST 7:16 PM CST
Moon 6:02 PM CST (2/25) 6:05 AM CST (2/25)
Length of Visible Light 12h 08m
Length of Day
11h 17m
Full, 100% of the Moon is Illuminated
Feb 25
Full
Feb 25
Full
Mar 4
Last Quarter
Mar 11
New
Mar 19
First Quarter

Hourly Weather History & Observations

Time (CST) Temp. Windchill Dew Point Humidity Pressure Visibility Wind Dir Wind Speed Gust Speed Precip Events Conditions
12:55 AM 44.6 °F 40.2 °F 28.4 °F 53% 29.92 in 10.0 mi ENE 8.1 mph - N/A   Clear
1:55 AM 44.6 °F 41.4 °F 28.4 °F 53% 29.92 in 10.0 mi ENE 5.8 mph - N/A   Clear
2:15 AM 44.6 °F 40.2 °F 28.4 °F 53% 29.90 in 10.0 mi ENE 8.1 mph - N/A   Clear
2:35 AM 44.6 °F 40.2 °F 26.6 °F 49% 29.89 in 10.0 mi ENE 8.1 mph - N/A   Clear
2:55 AM 44.6 °F 40.7 °F 26.6 °F 49% 29.89 in 10.0 mi NE 6.9 mph - N/A   Clear
3:15 AM 44.6 °F 41.4 °F 26.6 °F 49% 29.90 in 10.0 mi ENE 5.8 mph - N/A   Clear
3:35 AM 44.6 °F 39.7 °F 26.6 °F 49% 29.89 in 10.0 mi East 9.2 mph - N/A   Clear
3:55 AM 42.8 °F 38.6 °F 26.6 °F 53% 29.88 in 10.0 mi ENE 6.9 mph - N/A   Clear
4:15 AM 42.8 °F 39.3 °F 26.6 °F 53% 29.88 in 10.0 mi ENE 5.8 mph - N/A   Clear
4:35 AM 42.8 °F 39.3 °F 26.6 °F 53% 29.88 in 10.0 mi Variable 5.8 mph - N/A   Clear
4:55 AM 42.8 °F 37.5 °F 26.6 °F 53% 29.88 in 10.0 mi ENE 9.2 mph - N/A   Clear
5:55 AM 41.0 °F 35.8 °F 26.6 °F 57% 29.87 in 10.0 mi ENE 8.1 mph - N/A   Clear
6:55 AM 41.0 °F 36.4 °F 26.6 °F 57% 29.86 in 10.0 mi East 6.9 mph - N/A   Clear
7:55 AM 42.8 °F 37.5 °F 28.4 °F 57% 29.85 in 10.0 mi ENE 9.2 mph - N/A   Clear
8:55 AM 46.4 °F 42.4 °F 28.4 °F 50% 29.85 in 10.0 mi East 8.1 mph - N/A   Clear
9:55 AM 53.6 °F - 30.2 °F 41% 29.83 in 10.0 mi East 11.5 mph - N/A   Mostly Cloudy
10:55 AM 55.4 °F - 30.2 °F 38% 29.82 in 10.0 mi East 8.1 mph - N/A   Mostly Cloudy
11:55 AM 60.8 °F - 33.8 °F 36% 29.76 in 10.0 mi East 9.2 mph - N/A   Mostly Cloudy
12:55 PM 60.8 °F - 35.6 °F 39% 29.71 in 10.0 mi East 11.5 mph - N/A   Overcast
1:55 PM 59.0 °F - 39.2 °F 48% 29.67 in 10.0 mi ESE 9.2 mph - N/A   Overcast
2:55 PM 59.0 °F - 42.8 °F 55% 29.61 in 10.0 mi East 13.8 mph - N/A   Overcast
3:55 PM 57.2 °F - 44.6 °F 63% 29.57 in 10.0 mi East 13.8 mph 25.3 mph N/A   Overcast
4:55 PM 55.4 °F - 42.8 °F 63% 29.54 in 10.0 mi East 11.5 mph - N/A   Overcast
5:55 PM 55.4 °F - 42.8 °F 63% 29.52 in 10.0 mi East 11.5 mph - N/A   Overcast
6:55 PM 55.4 °F - 50.0 °F 82% 29.49 in 10.0 mi ESE 8.1 mph - N/A   Overcast
7:55 PM 55.4 °F - 53.6 °F 94% 29.45 in 5.0 mi East 8.1 mph - N/A Rain Light Rain
8:55 PM 55.4 °F - 53.6 °F 94% 29.42 in 6.0 mi East 5.8 mph - N/A Rain Light Rain
9:55 PM 55.4 °F - 53.6 °F 94% 29.36 in 4.0 mi East 12.7 mph - N/A Rain Light Rain
10:55 PM 53.6 °F - 53.6 °F 100% 29.39 in 4.0 mi SSE 8.1 mph - N/A Rain Light Rain
11:55 PM 53.6 °F - 53.6 °F 100% 29.35 in 5.0 mi ESE 8.1 mph - N/A Rain Light Rain